Weather History for Sheridan, WY

Change the Weather History Date:

Monday, December 17, 2012

  Actual Average Record
Temperature  
Mean Temperature 27 °F 22 °F  
Max Temperature 37 °F 34 °F 68 °F (1980)
Min Temperature 16 °F 10 °F -30 °F (1924)
Degree Days  
Heating Degree Days 38 43  
Month to date heating degree days 595 708  
Since 1 July heating degree days 2279 2586  
Cooling Degree Days 0 0  
Month to date cooling degree days 0 0  
Year to date cooling degree days 664 419  
Moisture  
Dew Point 20 °F    
Average Humidity 75    
Maximum Humidity 92    
Minimum Humidity 58    
Precipitation  
Precipitation 0.02 in 0.01 in 0.40 in (2000)
Month to date precipitation 0.31 0.32  
Year to date precipitation 9.34 13.92  
Sea Level Pressure  
Sea Level Pressure 29.53 in    
Wind  
Wind Speed 6 mph (West)    
Max Wind Speed 28 mph    
Max Gust Speed 35 mph    
Visibility 9 miles    
Events Snow    
T = Trace of Precipitation, MM = Missing Value Source: NWS Daily Summary

Daily Weather History Graph

Daily Weather History Graph

Search for Another Location

Airport:

Trip Planner

Search our weather history database for the weather conditions in past years. The results will help you decide how hot, cold, wet, or windy it might be!

Date:

Astronomy

Dec. 17, 2012 Rise Set
Actual Time 7:40 AM MST 4:28 PM MST
Civil Twilight 7:06 AM MST 5:02 PM MST
Nautical Twilight 6:29 AM MST 5:39 PM MST
Astronomical Twilight 5:53 AM MST 6:14 PM MST
Moon 10:39 AM MST (12/17) 10:05 PM MST (12/17)
Length of Visible Light 9h 55m
Length of Day
8h 48m
Waxing Crescent, 25% of the Moon is Illuminated
Dec 17
Waxing Crescent
Dec 19
First Quarter
Dec 28
Full
Jan 4
Last Quarter
Jan 11
New

Hourly Weather History & Observations

Time (MST) Temp. Windchill Dew Point Humidity Pressure Visibility Wind Dir Wind Speed Gust Speed Precip Events Conditions
12:53 AM 24.1 °F 19.7 °F 12.0 °F 60% 29.71 in 10.0 mi ESE 3.5 mph - N/A   Clear
1:53 AM 21.0 °F 16.2 °F 10.9 °F 65% 29.67 in 10.0 mi South 3.5 mph - N/A   Clear
2:53 AM 21.9 °F 17.2 °F 10.9 °F 63% 29.64 in 10.0 mi Variable 3.5 mph - N/A   Partly Cloudy
3:53 AM 25.0 °F 15.5 °F 12.9 °F 60% 29.59 in 10.0 mi SE 9.2 mph - N/A   Partly Cloudy
4:53 AM 19.0 °F - 10.9 °F 71% 29.59 in 10.0 mi Calm Calm - N/A   Scattered Clouds
5:53 AM 21.9 °F 14.5 °F 12.9 °F 68% 29.55 in 10.0 mi South 5.8 mph - N/A   Clear
6:53 AM 19.0 °F 10.0 °F 10.9 °F 71% 29.55 in 10.0 mi NW 6.9 mph - N/A   Mostly Cloudy
7:53 AM 17.1 °F 8.7 °F 10.9 °F 77% 29.54 in 10.0 mi WNW 5.8 mph - N/A   Partly Cloudy
8:53 AM 19.9 °F 14.9 °F 12.9 °F 74% 29.52 in 10.0 mi NNW 3.5 mph - N/A   Overcast
9:53 AM 21.0 °F - 12.9 °F 71% 29.52 in 10.0 mi Calm Calm - N/A   Clear
10:53 AM 24.1 °F - 14.0 °F 65% 29.50 in 10.0 mi Calm Calm - N/A   Mostly Cloudy
11:53 AM 24.1 °F 17.0 °F 15.1 °F 69% 29.48 in 10.0 mi North 5.8 mph - N/A   Overcast
12:53 PM 30.0 °F 24.1 °F 17.1 °F 59% 29.44 in 10.0 mi NE 5.8 mph - N/A   Scattered Clouds
1:53 PM 30.0 °F - 18.0 °F 61% 29.48 in 10.0 mi Calm Calm - N/A   Overcast
2:53 PM 30.9 °F 24.3 °F 21.0 °F 67% 29.46 in 10.0 mi South 6.9 mph - N/A   Overcast
5:53 PM 34.0 °F 31.0 °F 30.0 °F 85% 29.51 in 9.0 mi WNW 3.5 mph - 0.01 in   Overcast
6:29 PM 33.8 °F 25.8 °F 30.2 °F 87% 29.43 in 2.5 mi WNW 10.4 mph 20.7 mph 0.00 in Snow Light Snow
6:33 PM 33.8 °F - 30.2 °F 87% 29.42 in 1.8 mi Calm Calm - 0.01 in Snow Light Snow
6:42 PM 33.8 °F 25.8 °F 30.2 °F 87% 29.41 in 2.5 mi South 10.4 mph - 0.01 in Snow Light Snow
6:49 PM 33.8 °F 27.7 °F 30.2 °F 87% 29.41 in 9.0 mi SSE 6.9 mph - 0.01 in   Mostly Cloudy
6:53 PM 32.0 °F 24.2 °F 30.9 °F 96% 29.52 in 9.0 mi SSE 9.2 mph - 0.01 in   Mostly Cloudy
7:53 PM 32.0 °F - 28.0 °F 85% 29.52 in 10.0 mi Calm Calm - N/A   Scattered Clouds
8:53 PM 30.0 °F 22.4 °F 26.1 °F 85% 29.55 in 10.0 mi NW 8.1 mph - N/A   Mostly Cloudy
9:53 PM 33.1 °F 27.7 °F 26.1 °F 75% 29.57 in 10.0 mi WNW 5.8 mph - N/A   Overcast
10:53 PM 32.0 °F 19.2 °F 25.0 °F 75% 29.61 in 10.0 mi NW 23.0 mph 28.8 mph N/A   Overcast
11:53 PM 33.1 °F 23.9 °F 21.0 °F 61% 29.61 in 10.0 mi WNW 12.7 mph - N/A   Mostly Cloudy